SHU5600 UHWW-UHHH

Flight info

Callsign SHU5600
Flight time 1h 7m
Altitude 33000
Route DOLMA2F DOLMA B356 TD B355 ARDEL ARDEL6G
Aircraft A319/M-SDE3FGHIRWY/LB1

Departure

Time 2026-05-06 18:49
Airport Vladivostok International Airport (UHWW)

Arrival

Time 2026-05-06 19:56
Airport Khabarovsk Novy Airport (UHHH)
Time Latitude Longitude Altitude Speed Heading
2026-05-06 17:35 43.39687 132.16422 70 ft 0 kts 152°
2026-05-06 18:34 43.39689 132.16420 69 ft 2 kts 152°
2026-05-06 18:34 43.39712 132.16403 69 ft 4 kts 152°
2026-05-06 18:35 43.39734 132.16387 69 ft 2 kts 152°
2026-05-06 18:35 43.39756 132.16375 69 ft 4 kts 176°
2026-05-06 18:35 43.39779 132.16382 63 ft 4 kts 224°
2026-05-06 18:35 43.39789 132.16398 69 ft 0 kts 241°
2026-05-06 18:41 43.39788 132.16395 69 ft 1 kts 241°
2026-05-06 18:41 43.39782 132.16381 62 ft 2 kts 241°
2026-05-06 18:41 43.39772 132.16355 69 ft 3 kts 242°
2026-05-06 18:41 43.39761 132.16327 69 ft 4 kts 242°
2026-05-06 18:42 43.39747 132.16289 69 ft 5 kts 244°
2026-05-06 18:42 43.39751 132.16229 62 ft 9 kts 295°
2026-05-06 18:42 43.39808 132.16175 67 ft 10 kts 333°
2026-05-06 18:42 43.39863 132.16133 67 ft 8 kts 331°
2026-05-06 18:43 43.39895 132.16095 65 ft 5 kts 282°
2026-05-06 18:43 43.39883 132.16054 62 ft 7 kts 245°
2026-05-06 18:43 43.39843 132.15943 63 ft 18 kts 242°
2026-05-06 18:43 43.39814 132.15867 67 ft 5 kts 242°
2026-05-06 18:44 43.39800 132.15832 69 ft 5 kts 240°
2026-05-06 18:44 43.39760 132.15735 69 ft 18 kts 241°
2026-05-06 18:44 43.39691 132.15564 69 ft 20 kts 240°
2026-05-06 18:44 43.39628 132.15410 65 ft 17 kts 242°
2026-05-06 18:45 43.39575 132.15278 62 ft 14 kts 238°
2026-05-06 18:45 43.39530 132.15169 66 ft 12 kts 241°
2026-05-06 18:45 43.39488 132.15065 64 ft 13 kts 241°
2026-05-06 18:45 43.39445 132.14959 64 ft 13 kts 241°
2026-05-06 18:46 43.39402 132.14851 69 ft 13 kts 240°
2026-05-06 18:46 43.39359 132.14742 66 ft 13 kts 241°
2026-05-06 18:46 43.39314 132.14632 69 ft 13 kts 240°
2026-05-06 18:46 43.39264 132.14511 63 ft 16 kts 240°
2026-05-06 18:47 43.39212 132.14383 66 ft 15 kts 240°
2026-05-06 18:47 43.39215 132.14275 65 ft 11 kts 320°
2026-05-06 18:47 43.39272 132.14233 63 ft 8 kts 332°
2026-05-06 18:47 43.39314 132.14199 66 ft 7 kts 329°
2026-05-06 18:48 43.39369 132.14194 64 ft 10 kts 27°
2026-05-06 18:48 43.39424 132.14300 62 ft 28 kts 60°
2026-05-06 18:48 43.39641 132.14843 63 ft 98 kts 61°
2026-05-06 18:48 43.40071 132.15902 63 ft 153 kts 60°
2026-05-06 18:49 43.40608 132.17255 552 ft 157 kts 61°
2026-05-06 18:49 43.41099 132.18525 1268 ft 151 kts 60°
2026-05-06 18:49 43.41616 132.19799 1821 ft 156 kts 60°
2026-05-06 18:49 43.42180 132.21183 2160 ft 175 kts 58°
2026-05-06 18:50 43.42809 132.22729 2478 ft 195 kts 59°
2026-05-06 18:50 43.43505 132.24448 2823 ft 217 kts 60°
2026-05-06 18:50 43.44286 132.26360 3203 ft 239 kts 59°
2026-05-06 18:50 43.45121 132.28424 3854 ft 252 kts 59°
2026-05-06 18:51 43.45982 132.30561 4685 ft 258 kts 59°
2026-05-06 18:51 43.46864 132.32744 5517 ft 263 kts 59°
2026-05-06 18:51 43.47760 132.34982 6338 ft 270 kts 59°
2026-05-06 18:51 43.48821 132.37088 7105 ft 274 kts 47°
2026-05-06 18:52 43.50230 132.38863 7860 ft 276 kts 32°
2026-05-06 18:52 43.51891 132.40234 8595 ft 282 kts 26°
2026-05-06 18:52 43.53607 132.41583 9343 ft 285 kts 26°
2026-05-06 18:52 43.55354 132.42972 10027 ft 292 kts 26°
2026-05-06 18:53 43.57172 132.44422 10335 ft 313 kts 26°
2026-05-06 18:53 43.59124 132.45980 10591 ft 335 kts 25°
2026-05-06 18:53 43.61174 132.47604 11074 ft 345 kts 26°
2026-05-06 18:53 43.63249 132.49255 11676 ft 353 kts 26°
2026-05-06 18:54 43.65397 132.50969 12320 ft 361 kts 25°
2026-05-06 18:54 43.67592 132.52724 12955 ft 369 kts 25°
2026-05-06 18:54 43.69828 132.54515 13599 ft 374 kts 25°
2026-05-06 18:54 43.72096 132.56337 14224 ft 380 kts 25°
2026-05-06 18:55 43.74395 132.58185 14832 ft 385 kts 25°
2026-05-06 18:55 43.76733 132.60064 15365 ft 395 kts 25°
2026-05-06 18:55 43.79114 132.61980 15956 ft 397 kts 24°
2026-05-06 18:55 43.81419 132.64142 16543 ft 406 kts 34°
2026-05-06 18:56 43.83529 132.66698 17091 ft 410 kts 37°
2026-05-06 18:56 43.85681 132.69331 17594 ft 416 kts 37°
2026-05-06 18:56 43.87874 132.72032 18141 ft 427 kts 38°
2026-05-06 18:56 43.90089 132.74776 18692 ft 426 kts 36°
2026-05-06 18:57 43.92317 132.77527 19189 ft 431 kts 37°
2026-05-06 18:57 43.94566 132.80312 19654 ft 436 kts 38°
2026-05-06 18:57 43.96845 132.83129 20162 ft 441 kts 37°
2026-05-06 18:57 43.99146 132.85979 20673 ft 445 kts 38°
2026-05-06 18:58 44.01472 132.88868 21136 ft 451 kts 38°
2026-05-06 18:58 44.03790 132.91749 21567 ft 457 kts 37°
2026-05-06 18:58 44.06174 132.94710 21991 ft 462 kts 38°
2026-05-06 18:58 44.08580 132.97703 22427 ft 467 kts 38°
2026-05-06 18:59 44.11012 133.00733 22875 ft 471 kts 38°
2026-05-06 18:59 44.13463 133.03789 23300 ft 476 kts 38°
2026-05-06 18:59 44.15938 133.06878 23720 ft 480 kts 38°
2026-05-06 18:59 44.18433 133.09993 24124 ft 484 kts 38°
2026-05-06 19:00 44.21011 133.13023 24518 ft 485 kts 32°
2026-05-06 19:00 44.23731 133.15817 24917 ft 487 kts 31°
2026-05-06 19:00 44.26429 133.18591 25319 ft 490 kts 31°
2026-05-06 19:00 44.29176 133.21421 25723 ft 492 kts 31°
2026-05-06 19:01 44.31937 133.24269 26104 ft 495 kts 31°
2026-05-06 19:01 44.34717 133.27137 26496 ft 497 kts 31°
2026-05-06 19:01 44.37503 133.30014 26867 ft 500 kts 31°
2026-05-06 19:01 44.40302 133.32909 27237 ft 502 kts 31°
2026-05-06 19:02 44.43113 133.35823 27598 ft 504 kts 31°
2026-05-06 19:02 44.45930 133.38754 27950 ft 506 kts 31°
2026-05-06 19:02 44.48763 133.41706 28280 ft 509 kts 31°
2026-05-06 19:02 44.51609 133.44671 28620 ft 511 kts 31°
2026-05-06 19:03 44.54430 133.47609 28945 ft 513 kts 31°
2026-05-06 19:03 44.57300 133.50602 29261 ft 516 kts 31°
2026-05-06 19:03 44.60184 133.53612 29550 ft 518 kts 30°
2026-05-06 19:03 44.63079 133.56636 29872 ft 520 kts 30°
2026-05-06 19:04 44.65989 133.59679 30170 ft 522 kts 30°
2026-05-06 19:04 44.68905 133.62731 30461 ft 525 kts 30°
2026-05-06 19:04 44.71837 133.65801 30727 ft 527 kts 30°
2026-05-06 19:04 44.74783 133.68893 31002 ft 529 kts 30°
2026-05-06 19:05 44.77730 133.71995 31272 ft 530 kts 30°
2026-05-06 19:05 44.80641 133.75075 31620 ft 530 kts 30°
2026-05-06 19:05 44.83580 133.78188 32013 ft 529 kts 29°
2026-05-06 19:05 44.86519 133.81301 32390 ft 528 kts 29°
2026-05-06 19:06 44.89453 133.84409 32739 ft 527 kts 29°
2026-05-06 19:06 44.92382 133.87504 32848 ft 524 kts 28°
2026-05-06 19:06 44.95285 133.90509 32861 ft 511 kts 27°
2026-05-06 19:07 45.01059 133.96226 32859 ft 504 kts 25°
2026-05-06 19:07 45.06793 134.01806 32860 ft 504 kts 25°
2026-05-06 19:08 45.12552 134.07524 32861 ft 506 kts 26°
2026-05-06 19:08 45.18287 134.13305 32857 ft 506 kts 26°
2026-05-06 19:09 45.24023 134.19094 32851 ft 506 kts 26°
2026-05-06 19:09 45.29724 134.24842 32843 ft 506 kts 26°
2026-05-06 19:10 45.35457 134.30628 32834 ft 506 kts 26°
2026-05-06 19:10 45.41194 134.36436 32824 ft 507 kts 26°
2026-05-06 19:11 45.46937 134.42268 32822 ft 507 kts 26°
2026-05-06 19:11 45.52678 134.48117 32826 ft 508 kts 26°
2026-05-06 19:12 45.58386 134.53944 32827 ft 508 kts 26°
2026-05-06 19:12 45.64132 134.59837 32827 ft 508 kts 26°
2026-05-06 19:13 45.69876 134.65726 32825 ft 508 kts 26°
2026-05-06 19:13 45.75625 134.71642 32822 ft 509 kts 26°
2026-05-06 19:14 45.81331 134.77545 32831 ft 509 kts 26°
2026-05-06 19:14 45.87127 134.83301 32830 ft 499 kts 18°
2026-05-06 19:14 45.90216 134.85397 32829 ft 483 kts
2026-05-06 19:15 45.93377 134.86774 32830 ft 467 kts 359°
2026-05-06 19:15 45.96527 134.87471 32823 ft 452 kts 351°
2026-05-06 19:15 45.99659 134.87861 32821 ft 451 kts 351°
2026-05-06 19:16 46.05922 134.88686 32815 ft 452 kts 351°
2026-05-06 19:16 46.12146 134.89531 32818 ft 452 kts 351°
2026-05-06 19:17 46.18407 134.90368 32820 ft 452 kts 350°
2026-05-06 19:17 46.24663 134.91212 32818 ft 451 kts 351°
2026-05-06 19:18 46.30910 134.92046 32817 ft 451 kts 350°
2026-05-06 19:18 46.37116 134.92875 32813 ft 451 kts 350°
2026-05-06 19:19 46.43361 134.93714 32808 ft 451 kts 350°
2026-05-06 19:19 46.49635 134.94551 32827 ft 460 kts 350°
2026-05-06 19:20 46.56140 134.95387 32823 ft 478 kts 351°
2026-05-06 19:20 46.62879 134.96289 32813 ft 494 kts 352°
2026-05-06 19:21 46.69755 134.97247 32822 ft 503 kts 352°
2026-05-06 19:21 46.76726 134.98227 32812 ft 504 kts 352°
2026-05-06 19:21 46.80226 134.98848 32806 ft 515 kts 358°
2026-05-06 19:22 46.83728 135.00388 32814 ft 538 kts 12°
2026-05-06 19:22 46.90508 135.05422 32808 ft 548 kts 17°
2026-05-06 19:23 46.97269 135.10596 32810 ft 548 kts 17°
2026-05-06 19:23 47.03980 135.15725 32813 ft 547 kts 16°
2026-05-06 19:24 47.10727 135.20876 32802 ft 547 kts 16°
2026-05-06 19:24 47.17474 135.26026 32798 ft 546 kts 16°
2026-05-06 19:25 47.24217 135.31202 32788 ft 547 kts 16°
2026-05-06 19:25 47.30904 135.36372 32784 ft 546 kts 16°
2026-05-06 19:26 47.37634 135.41571 32785 ft 546 kts 16°
2026-05-06 19:26 47.44363 135.46777 32778 ft 547 kts 16°
2026-05-06 19:27 47.51093 135.52005 32774 ft 546 kts 16°
2026-05-06 19:27 47.57820 135.57250 32778 ft 546 kts 15°
2026-05-06 19:28 47.64490 135.62464 32779 ft 546 kts 15°
2026-05-06 19:28 47.71200 135.67724 31890 ft 543 kts 15°
2026-05-06 19:28 47.74537 135.70351 30909 ft 539 kts 16°
2026-05-06 19:29 47.77770 135.72930 30601 ft 518 kts 15°
2026-05-06 19:29 47.80902 135.75448 29963 ft 507 kts 15°
2026-05-06 19:29 47.83987 135.77952 29164 ft 503 kts 16°
2026-05-06 19:29 47.87034 135.80447 28378 ft 497 kts 17°
2026-05-06 19:30 47.90007 135.82894 27586 ft 492 kts 17°
2026-05-06 19:30 47.92991 135.85352 26800 ft 488 kts 18°
2026-05-06 19:30 47.95949 135.87786 26072 ft 483 kts 17°
2026-05-06 19:30 47.98871 135.90190 25334 ft 477 kts 18°
2026-05-06 19:31 48.01767 135.92580 24611 ft 473 kts 18°
2026-05-06 19:31 48.04627 135.94946 23903 ft 466 kts 18°
2026-05-06 19:31 48.09979 136.00441 22565 ft 468 kts 33°
2026-05-06 19:32 48.12437 136.03574 22023 ft 460 kts 34°
2026-05-06 19:32 48.14813 136.06612 21491 ft 450 kts 34°
2026-05-06 19:32 48.17166 136.09630 20953 ft 441 kts 34°
2026-05-06 19:32 48.19511 136.12480 20374 ft 426 kts 26°
2026-05-06 19:33 48.22069 136.14449 19838 ft 402 kts 11°
2026-05-06 19:33 48.24703 136.15432 19254 ft 380 kts 358°
2026-05-06 19:33 48.27281 136.15633 18630 ft 366 kts 352°
2026-05-06 19:33 48.29809 136.15721 17994 ft 360 kts 353°
2026-05-06 19:34 48.32292 136.15814 17383 ft 355 kts 354°
2026-05-06 19:34 48.34709 136.15908 16808 ft 348 kts 354°
2026-05-06 19:34 48.37096 136.16003 16394 ft 337 kts 354°
2026-05-06 19:34 48.39405 136.16098 16021 ft 326 kts 354°
2026-05-06 19:35 48.41637 136.16190 15668 ft 316 kts 354°
2026-05-06 19:35 48.43797 136.16275 15329 ft 306 kts 354°
2026-05-06 19:35 48.45895 136.16348 14994 ft 297 kts 354°
2026-05-06 19:35 48.47932 136.16415 14701 ft 291 kts 354°
2026-05-06 19:36 48.49956 136.16478 14374 ft 291 kts 354°
2026-05-06 19:36 48.51979 136.16539 14036 ft 291 kts 354°
2026-05-06 19:36 48.54005 136.16589 13686 ft 290 kts 352°
2026-05-06 19:36 48.55958 136.16240 13349 ft 285 kts 343°
2026-05-06 19:37 48.57906 136.15702 13003 ft 284 kts 343°
2026-05-06 19:37 48.59854 136.15170 12654 ft 285 kts 343°
2026-05-06 19:37 48.61804 136.14640 12301 ft 285 kts 343°
2026-05-06 19:37 48.63094 136.14291 12068 ft 284 kts 344°
2026-05-06 19:38 48.65696 136.13587 11588 ft 283 kts 344°
2026-05-06 19:38 48.67634 136.13060 11230 ft 282 kts 345°
2026-05-06 19:38 48.69537 136.12540 10870 ft 281 kts 345°
2026-05-06 19:38 48.71460 136.12016 10507 ft 281 kts 345°
2026-05-06 19:39 48.73376 136.11497 10143 ft 279 kts 345°
2026-05-06 19:39 48.75209 136.10635 9761 ft 273 kts 329°
2026-05-06 19:39 48.76730 136.08980 9399 ft 268 kts 312°
2026-05-06 19:39 48.77819 136.06731 9030 ft 264 kts 296°
2026-05-06 19:40 48.78438 136.04129 8654 ft 263 kts 286°
2026-05-06 19:40 48.78958 136.01481 8284 ft 261 kts 287°
2026-05-06 19:40 48.79477 135.98853 7912 ft 260 kts 287°
2026-05-06 19:40 48.79997 135.96232 7521 ft 259 kts 287°
2026-05-06 19:41 48.80506 135.93655 7148 ft 258 kts 287°
2026-05-06 19:41 48.81010 135.91105 7011 ft 247 kts 287°
2026-05-06 19:41 48.81493 135.88670 6892 ft 235 kts 287°
2026-05-06 19:41 48.81964 135.86352 6785 ft 226 kts 290°
2026-05-06 19:42 48.82748 135.84308 6782 ft 225 kts 310°
2026-05-06 19:42 48.83957 135.82792 6780 ft 228 kts 328°
2026-05-06 19:42 48.85330 135.81588 6787 ft 228 kts 328°
2026-05-06 19:42 48.86698 135.80373 6786 ft 228 kts 327°
2026-05-06 19:43 48.88045 135.79170 6786 ft 228 kts 327°
2026-05-06 19:43 48.89412 135.77944 6786 ft 228 kts 327°
2026-05-06 19:43 48.90781 135.76716 6786 ft 229 kts 327°
2026-05-06 19:43 48.92012 135.75225 6779 ft 226 kts 310°
2026-05-06 19:44 48.92920 135.73278 6783 ft 226 kts 302°
2026-05-06 19:44 48.93773 135.71270 6786 ft 226 kts 302°
2026-05-06 19:44 48.94628 135.69265 6787 ft 225 kts 302°
2026-05-06 19:44 48.95483 135.67262 6784 ft 226 kts 302°
2026-05-06 19:45 48.96329 135.65281 6787 ft 226 kts 302°
2026-05-06 19:45 48.97186 135.63277 6785 ft 226 kts 302°
2026-05-06 19:45 48.97907 135.61165 6785 ft 225 kts 288°
2026-05-06 19:45 48.98204 135.58818 6780 ft 227 kts 277°
2026-05-06 19:46 48.98393 135.56431 6783 ft 227 kts 277°
2026-05-06 19:46 48.98586 135.54047 6784 ft 227 kts 277°
2026-05-06 19:46 48.98780 135.51661 6780 ft 227 kts 277°
2026-05-06 19:46 48.98654 135.49281 6785 ft 229 kts 251°
2026-05-06 19:47 48.97773 135.47270 6782 ft 233 kts 222°
2026-05-06 19:47 48.96324 135.46153 6669 ft 238 kts 192°
2026-05-06 19:47 48.94691 135.46236 6551 ft 241 kts 172°
2026-05-06 19:47 48.93034 135.46671 6434 ft 242 kts 172°
2026-05-06 19:48 48.91377 135.47104 6321 ft 241 kts 172°
2026-05-06 19:48 48.89722 135.47532 6201 ft 242 kts 172°
2026-05-06 19:48 48.88068 135.47960 6086 ft 241 kts 172°
2026-05-06 19:48 48.86418 135.48386 5975 ft 240 kts 173°
2026-05-06 19:49 48.84775 135.48808 5867 ft 240 kts 173°
2026-05-06 19:49 48.83132 135.49229 5740 ft 239 kts 172°
2026-05-06 19:49 48.81517 135.49641 5631 ft 238 kts 172°
2026-05-06 19:49 48.79882 135.50059 5516 ft 238 kts 172°
2026-05-06 19:50 48.78251 135.50472 5398 ft 237 kts 174°
2026-05-06 19:50 48.76623 135.50390 5288 ft 233 kts 195°
2026-05-06 19:50 48.75127 135.49487 4943 ft 236 kts 215°
2026-05-06 19:50 48.73897 135.47875 4607 ft 232 kts 226°
2026-05-06 19:51 48.72745 135.46181 4285 ft 230 kts 225°
2026-05-06 19:51 48.71590 135.44494 3831 ft 232 kts 226°
2026-05-06 19:51 48.70434 135.42780 3349 ft 230 kts 225°
2026-05-06 19:51 48.69304 135.41194 3155 ft 220 kts 223°
2026-05-06 19:52 48.68176 135.39640 3028 ft 220 kts 223°
2026-05-06 19:52 48.67046 135.38084 2831 ft 219 kts 223°
2026-05-06 19:52 48.65927 135.36543 2654 ft 217 kts 223°
2026-05-06 19:52 48.64817 135.35019 2481 ft 213 kts 223°
2026-05-06 19:53 48.63739 135.33538 2305 ft 207 kts 223°
2026-05-06 19:53 48.62692 135.32100 2174 ft 199 kts 223°
2026-05-06 19:53 48.61681 135.30713 2047 ft 195 kts 223°
2026-05-06 19:53 48.60692 135.29358 1879 ft 188 kts 223°
2026-05-06 19:54 48.59758 135.28078 1632 ft 179 kts 223°
2026-05-06 19:54 48.58862 135.26851 1421 ft 169 kts 223°
2026-05-06 19:54 48.58014 135.25690 1226 ft 160 kts 223°
2026-05-06 19:54 48.57212 135.24593 1041 ft 151 kts 224°
2026-05-06 19:55 48.56451 135.23551 866 ft 144 kts 223°
2026-05-06 19:55 48.55714 135.22544 693 ft 142 kts 223°
2026-05-06 19:55 48.54995 135.21561 537 ft 135 kts 223°
2026-05-06 19:55 48.54309 135.20623 374 ft 131 kts 223°
2026-05-06 19:56 48.53645 135.19719 254 ft 129 kts 223°
2026-05-06 19:56 48.53079 135.18943 250 ft 87 kts 222°
2026-05-06 19:56 48.52745 135.18486 246 ft 50 kts 222°
2026-05-06 19:56 48.52501 135.18152 240 ft 45 kts 222°
2026-05-06 19:57 48.52310 135.17887 245 ft 16 kts 226°
2026-05-06 19:57 48.52316 135.17742 246 ft 15 kts 310°
2026-05-06 19:57 48.52355 135.17674 246 ft 10 kts 311°
2026-05-06 19:57 48.52412 135.17578 246 ft 13 kts 312°
2026-05-06 19:58 48.52475 135.17474 245 ft 14 kts 312°
2026-05-06 19:58 48.52497 135.17345 246 ft 14 kts 232°
2026-05-06 19:58 48.52480 135.17286 246 ft 4 kts 317°
2026-05-06 19:58 48.52503 135.17252 246 ft 5 kts 313°
2026-05-06 19:59 48.52530 135.17207 246 ft 0 kts 313°